[Iaude] MPEC S216: 2023 SO6 [a=2.22,e=0.54,i=5.5,H=26.6]
    mpec at marsden.cfa.harvard.edu 
    mpec at marsden.cfa.harvard.edu
       
    Mon Sep 25 22:18:37 EDT 2023
    
    
  
M.P.E.C. 2023-S216                           Issued 2023 September 26, 02:16 UT
     The Minor Planet Electronic Circulars contain information on unusual
         minor planets, routine data on comets and natural satellites,
         and occasional editorial announcements.  They are published
    on behalf of Division F of the International Astronomical Union by the
          Minor Planet Center, Smithsonian Astrophysical Observatory,
                          Cambridge, MA 02138, U.S.A.
			  
             Prepared using the Tamkin Foundation Computer Network
                              MPC at CFA.HARVARD.EDU
            URL https://www.minorplanetcenter.net/    ISSN 1523-6714
                                    2023 SO6                                    
Observations:
     K23S06O*1C2023 09 25.20747523 01 04.782+21 53 08.30         18.81GVES216G96
     K23S06O 1C2023 09 25.21791123 01 27.966+21 58 25.46         18.91GVES216G96
     K23S06O 1C2023 09 25.22313223 01 39.540+22 01 03.14         18.81GVES216G96
     K23S06O KC2023 09 25.27393223 03 31.954+22 26 26.12         18.98GVES216I52
     K23S06O KC2023 09 25.27444723 03 33.102+22 26 41.42         19.03GVES216I52
     K23S06O KC2023 09 25.27498123 03 34.268+22 26 57.16         19.04GVES216I52
     K23S06O KC2023 09 25.27549323 03 35.392+22 27 12.17         19.26GVES216I52
     K23S06O  C2023 09 25.29294323 04 12.345+22 35 32.21         18.8 GVES216H01
     K23S06O  C2023 09 25.29631123 04 19.768+22 37 10.56         19.2 GVES216H01
     K23S06O  C2023 09 25.30750823 04 44.519+22 42 36.64         19.0 GVES216H01
     K23S06O  C2023 09 25.31409523 04 59.083+22 45 47.76         18.6 GVES216H01
     K23S06O KC2023 09 25.45759223 10 20.809+23 53 07.40         19.04GVES216I52
     K23S06O KC2023 09 25.45810223 10 21.976+23 53 21.16         18.93GVES216I52
     K23S06O KC2023 09 25.45861623 10 23.120+23 53 34.94         19.02GVES216I52
     K23S06O KC2023 09 25.45914723 10 24.344+23 53 49.63         19.04GVES216I52
     K23S06O KB2023 09 25.81725323 24 44.83 +26 31 13.1          19.5 GVES216I93
     K23S06O KB2023 09 25.82072023 24 52.24 +26 32 41.7          20.0 GVES216I93
     K23S06O KB2023 09 25.82418723 24 59.67 +26 34 10.6          19.8 GVES216I93
     K23S06O KC2023 09 25.82695623 25 02.662+26 35 41.78         18.9 GVES216K63
     K23S06O KC2023 09 25.83086323 25 10.957+26 37 21.06         19.1 GVES216K63
     K23S06O KC2023 09 25.83581523 25 21.399+26 39 26.14         19.3 GVES216K63
     K23S06O KC2023 09 25.83721523 25 27.95 +26 39 45.6          18.8 GXES216958
     K23S06O KC2023 09 25.84320923 25 40.72 +26 42 18.7          19.3 GXES216958
     K23S06O KC2023 09 25.84919723 25 53.36 +26 44 49.0          19.5 GXES216958
     K23S06O KC2023 09 25.87255223 26 37.12 +26 54 40.9          19.3 GVES216L01
     K23S06O KC2023 09 25.87367523 26 39.43 +26 55 03.9          19.5 GXES216595
     K23S06O KC2023 09 25.87453123 26 41.22 +26 55 29.9          19.5 GVES216L01
     K23S06O KC2023 09 25.87651323 26 45.33 +26 56 18.9          19.4 GVES216L01
     K23S06O KC2023 09 25.87812323 26 48.69 +26 56 58.9          19.5 GVES216L01
     K23S06O KB2023 09 25.87901 23 26 51.15 +26 56 25.1          18.7 GVES216L65
     K23S06O KB2023 09 25.90036 23 27 35.95 +27 05 09.7          18.8 GVES216L65
     K23S06O KC2023 09 25.90171623 27 37.75 +27 06 32.6          19.5 GXES216595
     K23S06O KC2023 09 25.90875123 27 54.14 +27 09 22.9                VES216204
     K23S06O KC2023 09 25.91326323 28 03.38 +27 11 14.4          19.3 GVES216203
     K23S06O KC2023 09 25.91492623 28 06.95 +27 11 53.2                VES216204
     K23S06O KC2023 09 25.92110823 28 19.72 +27 14 22.9          19.3 GVES216204
     K23S06O KB2023 09 25.92176 23 28 20.65 +27 13 50.1          19.0 GVES216L65
     K23S06O KC2023 09 25.92830023 28 34.43 +27 17 18.4          19.2 GVES216203
Observer details:
203 GiaGa Observatory.  Observers S. Foglia, G. Galli.  Measurer G. Galli.
    0.36-m f/5.76 Schmidt-Cassegrain + CCD.
204 Schiaparelli Observatory.  Observers L. Buzzi, G. Galli.  0.84-m f/3.5
    reflector + CCD.
595 Farra d'Isonzo.  Observers E. Amodeo, S. Manca, E. Pettarin.  Measurer E.
    Pettarin.  0.61-m f/4.5 reflector + CCD.
958 Observatoire de Dax.  Observers P. Dupouy, J. B. de Vanssay.  Measurer P.
    Dupouy.  0.43-m f/2.7 Reflector + CCD.
G96 Mt. Lemmon Survey.  Observer R. A. Kowalski.  Measurers E. J. Christensen,
    D. Fay, J. B. Fazekas, D. C. Fuls, A. R. Gibbs, A. D. Grauer, H. Groeller,
    J. K. Hogan, R. A. Kowalski, S. M. Larson, G. J. Leonard, D. Rankin, R. L.
    Seaman, A. Serrano, F. C. Shelly, K. W. Wierzchos.  1.5-m reflector + 10K
    CCD.
H01 Magdalena Ridge Observatory, Socorro.  Observers W. H. Ryan, E. V. Ryan.
    Measurer W. H. Ryan.  2.4-m f/8.9 Ritchey-Chretien + CCD.
I52 Steward Observatory, Mt. Lemmon Station.  Observer A. Serrano.  Measurers
    E. J. Christensen, D. Fay, J. B. Fazekas, D. C. Fuls, A. R. Gibbs, A. D.
    Grauer, H. Groeller, J. K. Hogan, R. A. Kowalski, S. M. Larson, G. J.
    Leonard, D. Rankin, R. L. Seaman, A. Serrano, F. C. Shelly, K. W.
    Wierzchos.  1.0-m prime focus + CCD.
I93 St Pardon de Conques.  Observer F. Losse.  0.40-m f/3.7 reflector + CMO.
K63 G. Pascoli Observatory, Castelvecchio Pascoli.  Observer R. Bacci.  0.41-m
    f/3.75 0.41m f/3.2  Newton + CCD.
L01 Visnjan Observatory, Tican.  Observers K. Korlevic, L. Poropat, G.
    Kervina.  Measurer K. Korlevic.  1.0-m f/2.9 reflector + CCD.
L65 Bredenkamp Observatory, Bremen.  Observer H. Duin.  0.23-m f/6.3 reflector
    + CMO.
Orbital elements:
2023 SO6                                                 Earth MOID = 0.0099 AU
Epoch 2023 Sept. 13.0 TT = JDT 2460200.5                Veres                   
M 359.16446              (2000.0)            P               Q                  
n   0.29846820     Peri.  353.72201     +0.98554907     +0.16929141             
a   2.2175360      Node   356.51543     -0.15097940     +0.86243689             
e   0.5429740      Incl.    5.46084     -0.07680013     +0.47701471             
P   3.30           H   26.65          G   0.15           U   8                  
Residuals in seconds of arc
230925 G96  0.4+  0.5+    230925 I52  0.7-  0.6-    230925 L01  0.2-  0.1-
230925 G96  0.2-  0.2-    230925 I52  0.5-  0.3-    230925 L01  0.5-  0.1-
230925 G96  0.5-  1.0-    230925 I93  0.3+  0.1+    230925 L01  0.4-  0.1+
230925 I52  0.1+  0.3+    230925 I93  0.0   0.0     230925 L65  0.3+  0.0
230925 I52  0.3+  0.3+    230925 I93  0.1+  0.3+    230925 L65  0.3+  0.1+
230925 I52  0.1+  0.3+    230925 K63  0.5-  0.1-    230925 595  0.0   0.5-
230925 I52  0.1+  0.1+    230925 K63  0.1-  0.1+    230925 204  0.3+  0.2+
230925 H01  0.4+  0.5+    230925 K63  0.4-  0.2-    230925 203  0.3-  0.4-
230925 H01  0.1+  0.3+    230925 958  0.4+  0.4-    230925 204  0.6+  0.4+
230925 H01  0.1+  0.1+    230925 958  0.8+  0.7+    230925 204  0.5+  0.3+
230925 H01  0.0   0.1+    230925 958  0.1+  0.4-    230925 L65  0.3+  0.5+
230925 I52  0.5-  0.3-    230925 L01  0.1+  0.2-    230925 203  0.4-  0.1-
230925 I52  0.4-  0.4-    230925 595  0.3-  0.5-
Ephemeris:
2023 SO6                 a,e,i = 2.22, 0.54, 5                   q = 1.0135
Date    TT    R. A. (2000) Decl.     Delta      r    Elong.  Phase     V
2023 08 27    16 46 49.5 -45 49 41   0.1241  1.0434   102.0    71.3    24.7
...
2023 09 11    17 31 08.4 -42 59 44   0.05976 1.0153    96.3    80.3    23.4
...
2023 09 19    19 13 03.1 -31 16 40   0.02674 1.0143   110.0    68.6    21.2
...
2023 09 25    22 52 33.5 +20 06 41   0.01885 1.0200   153.6    25.9    19.3
2023 09 26    23 31 07.7 +27 47 25   0.02119 1.0215   151.7    27.8    19.6
2023 09 27    00 04 50.3 +33 13 40   0.02422 1.0232   148.0    31.2    20.0
...
2023 10 03    01 57 26.3 +43 48 55   0.04842 1.0361   135.8    42.3    21.8
...
2023 10 11    02 44 04.1 +45 03 42   0.08487 1.0611   135.8    41.0    23.0
...
2023 10 26    03 03 00.7 +43 21 50   0.1579  1.1285   145.9    29.6    24.2
M. P. C. Staff               (C) Copyright 2023 MPC           M.P.E.C. 2023-S216
    
    
More information about the Iaude
mailing list